Darwin, Australia

1:59 AM ACST on March 27, 2017 (GMT +0930)
Darwin

Weather History for 94120 - March, 2013

Change the Weather History Date:

Friday, March 15, 2013

  Actual Average Record
Temperature  
Mean Temperature 83 °F -  
Max Temperature 91 °F 90 °F - ()
Min Temperature 75 °F 76 °F - ()
Cooling Degree Days 18    
Growing Degree Days 33 (Base 50)    
Moisture  
Dew Point 76 °F    
Average Humidity 75    
Maximum Humidity 100    
Minimum Humidity 52    
Precipitation  
Precipitation 0.31 in 0.28 in - ()
Sea Level Pressure  
Sea Level Pressure 29.82 in    
Wind  
Wind Speed 11 mph ()    
Max Wind Speed 21 mph    
Max Gust Speed -    
Visibility 7.7 miles    
Events Rain , Thunderstorm    
T = Trace of Precipitation, MM = Missing Value Source: Averaged Metar Reports

Daily Weather History Graph

Daily Weather History Graph

Search for Another Location

Airport or City:

Trip Planner

Search our weather history database for the weather conditions in past years. The results will help you decide how hot, cold, wet, or windy it might be!

Date:

Astronomy

Mar. 15, 2013 Rise Set
Actual Time 6:50 AM ACST 7:00 PM ACST
Civil Twilight 6:28 AM ACST 7:21 PM ACST
Nautical Twilight 6:04 AM ACST 7:46 PM ACST
Astronomical Twilight 5:39 AM ACST 8:10 PM ACST
Moon 9:26 AM ACST (3/15) 9:22 PM ACST (3/15)
Length of Visible Light 12h 52m
Length of Day
12h 10m
Waxing Crescent, 11% of the Moon is Illuminated
Mar 15
Waxing Crescent
Mar 20
First Quarter
Mar 27
Full
Apr 3
Last Quarter
Apr 10
New

Hourly Weather History & Observations

Time (ACST) Temp. Heat Index Dew Point Humidity Pressure Visibility Wind Dir Wind Speed Gust Speed Precip Events Conditions
12:00 AM 83 °F - 78 °F 80% 29.83 in 19 mi WNW 11.5 mph - -   Partly Cloudy
12:00 AM 84.2 °F 94.1 °F 77.0 °F 79% 29.83 in 6.2 mi WNW 11.5 mph - N/A   Scattered Clouds
12:30 AM 83 °F - 78 °F 79% 29.82 in - WNW 13.8 mph - -  
12:30 AM 82.4 °F 90.9 °F 77.0 °F 84% 29.83 in 6.2 mi WNW 13.8 mph - N/A   Scattered Clouds
1:00 AM 82.4 °F 90.9 °F 77.0 °F 84% 29.80 in 6.2 mi West 12.7 mph - N/A   Scattered Clouds
1:30 AM 82.4 °F 90.9 °F 77.0 °F 84% 29.80 in 6.2 mi West 13.8 mph - N/A   Scattered Clouds
2:00 AM 82.4 °F 90.9 °F 77.0 °F 84% 29.80 in 6.2 mi West 9.2 mph - N/A   Scattered Clouds
2:30 AM 82.4 °F 90.9 °F 77.0 °F 84% 29.80 in 6.2 mi West 12.7 mph - N/A   Scattered Clouds
3:00 AM 83 °F - 76 °F 74% 29.80 in 19 mi WNW 11.5 mph - -   Partly Cloudy
3:00 AM 82.4 °F 89.5 °F 75.2 °F 79% 29.80 in 6.2 mi WNW 11.5 mph - N/A   Scattered Clouds
3:30 AM 83 °F - 76 °F 74% 29.80 in - WNW 10.4 mph - -  
3:30 AM 82.4 °F 90.9 °F 77.0 °F 84% 29.80 in 6.2 mi WNW 10.4 mph - N/A   Scattered Clouds
4:00 AM 82.4 °F 90.9 °F 77.0 °F 84% 29.80 in 6.2 mi West 9.2 mph - N/A   Mostly Cloudy
4:30 AM 82.4 °F 90.9 °F 77.0 °F 84% 29.80 in 6.2 mi WNW 9.2 mph - N/A   Mostly Cloudy
5:00 AM 82.4 °F 90.9 °F 77.0 °F 84% 29.80 in 6.2 mi West 11.5 mph - N/A   Mostly Cloudy
5:30 AM 82.4 °F 90.9 °F 77.0 °F 84% 29.80 in 6.2 mi West 10.4 mph - N/A   Mostly Cloudy
6:00 AM 82 °F - 77 °F 80% 29.82 in 19 mi West 9.2 mph - -   Partly Cloudy
6:00 AM 82.4 °F 90.9 °F 77.0 °F 84% 29.80 in 6.2 mi West 9.2 mph - N/A   Scattered Clouds
6:30 AM 82 °F - 77 °F 80% 29.83 in - West 8.1 mph - -  
6:30 AM 82.4 °F 90.9 °F 77.0 °F 84% 29.83 in 6.2 mi West 8.1 mph - N/A   Scattered Clouds
7:00 AM 82.4 °F 90.9 °F 77.0 °F 84% 29.83 in 6.2 mi West 8.1 mph - N/A   Scattered Clouds
7:30 AM 82.4 °F 90.9 °F 77.0 °F 84% 29.86 in 6.2 mi West 8.1 mph - N/A   Scattered Clouds
8:00 AM 84.2 °F 94.1 °F 77.0 °F 79% 29.86 in 6.2 mi West 9.2 mph - N/A   Scattered Clouds
8:30 AM 86.0 °F 96.9 °F 77.0 °F 74% 29.86 in 6.2 mi West 10.4 mph - N/A   Scattered Clouds
9:00 AM 87 °F - 77 °F 64% 29.88 in 19 mi West 10.4 mph - -   Partly Cloudy
9:00 AM 86.0 °F 96.9 °F 77.0 °F 74% 29.89 in 6.2 mi West 10.4 mph - N/A   Partly Cloudy
9:30 AM 87 °F - 76 °F 63% 29.89 in - West 12.7 mph - -  
9:30 AM 87.8 °F 99.7 °F 77.0 °F 70% 29.89 in 6.2 mi West 12.7 mph - N/A   Scattered Clouds
10:00 AM 87.8 °F 99.7 °F 77.0 °F 70% 29.89 in 6.2 mi West 10.4 mph - N/A   Scattered Clouds
10:30 AM 87.8 °F 97.6 °F 75.2 °F 66% 29.89 in 6.2 mi WNW 12.7 mph - N/A   Partly Cloudy
11:00 AM 89.6 °F 99.8 °F 75.2 °F 62% 29.86 in 6.2 mi WNW 13.8 mph - N/A   Partly Cloudy
11:30 AM 89.6 °F 99.8 °F 75.2 °F 62% 29.86 in 6.2 mi WNW 12.7 mph - N/A   Scattered Clouds
12:00 PM 90 °F - 75 °F 52% 29.86 in 19 mi WNW 13.8 mph - -   Partly Cloudy
12:00 PM 89.6 °F 99.8 °F 75.2 °F 62% 29.86 in 6.2 mi WNW 13.8 mph - N/A   Scattered Clouds
12:30 PM 90 °F - 76 °F 54% 29.85 in - WNW 13.8 mph - -  
12:30 PM 91.4 °F 102.5 °F 75.2 °F 59% 29.83 in 6.2 mi WNW 13.8 mph - N/A   Partly Cloudy
1:00 PM 91.4 °F 102.5 °F 75.2 °F 59% 29.83 in 6.2 mi WNW 15.0 mph - N/A   Partly Cloudy
1:30 PM 89.6 °F 99.8 °F 75.2 °F 62% 29.83 in 6.2 mi WNW 16.1 mph - N/A   Scattered Clouds
2:00 PM 91.4 °F 105.1 °F 77.0 °F 63% 29.80 in 6.2 mi WNW 18.4 mph - N/A   Partly Cloudy
2:30 PM 91.4 °F 105.1 °F 77.0 °F 63% 29.80 in 6.2 mi WNW 17.3 mph - N/A   Partly Cloudy
3:00 PM 91 °F - 77 °F 56% 29.78 in 19 mi WNW 16.1 mph - -   Partly Cloudy
3:00 PM 91.4 °F 105.1 °F 77.0 °F 63% 29.77 in 6.2 mi WNW 16.1 mph - N/A   Partly Cloudy
3:30 PM 90 °F - 77 °F 57% 29.77 in - WNW 17.3 mph - -  
3:30 PM 91.4 °F 105.1 °F 77.0 °F 63% 29.77 in 6.2 mi WNW 17.3 mph - N/A   Mostly Cloudy
4:00 PM 89.6 °F 102.2 °F 77.0 °F 66% 29.77 in 6.2 mi WNW 19.6 mph - N/A   Mostly Cloudy
4:30 PM 89.6 °F 102.2 °F 77.0 °F 66% 29.77 in 6.2 mi WNW 19.6 mph - N/A   Mostly Cloudy
5:00 PM 89.6 °F 99.8 °F 75.2 °F 62% 29.74 in 6.2 mi West 15.0 mph - N/A   Mostly Cloudy
5:30 PM 89.6 °F 99.8 °F 75.2 °F 62% 29.74 in 6.2 mi West 15.0 mph - N/A   Mostly Cloudy
6:00 PM 89 °F - 74 °F 54% 29.77 in 19 mi West 15.0 mph - -   Partly Cloudy
6:00 PM 89.6 °F 99.8 °F 75.2 °F 62% 29.77 in 6.2 mi WSW 15.0 mph - N/A   Mostly Cloudy
6:30 PM 88 °F - 76 °F 59% 29.79 in - West 11.5 mph - -  
6:30 PM 87.8 °F 97.6 °F 75.2 °F 66% 29.77 in 6.2 mi West 11.5 mph - N/A Thunderstorm Partly Cloudy
7:00 PM 87.8 °F 99.7 °F 77.0 °F 70% 29.83 in 6.2 mi West 9.2 mph - N/A   Mostly Cloudy
7:11 PM 80.6 °F 83.9 °F 69.8 °F 70% 29.83 in 6.2 mi ESE 17.3 mph - N/A Rain , Thunderstorm Light Rain Showers
7:17 PM 77.0 °F - 71.6 °F 83% 29.83 in 6.2 mi ESE 18.4 mph - N/A Rain , Thunderstorm Rain Showers
7:21 PM 77.0 °F - 73.4 °F 89% 29.83 in 1.9 mi ESE 20.7 mph - N/A Rain , Thunderstorm Heavy Rain Showers
7:30 PM 75.2 °F - 75.2 °F 100% 29.83 in 1.9 mi East 20.7 mph - N/A Rain , Thunderstorm Heavy Rain Showers
7:34 PM 77.0 °F - 75.2 °F 94% 29.83 in 1.9 mi East 18.4 mph - N/A Rain , Thunderstorm Heavy Rain Showers
7:39 PM 77.0 °F - 73.4 °F 89% 29.83 in 3.7 mi NE 18.4 mph - N/A Rain , Thunderstorm Heavy Rain Showers
7:46 PM 77.0 °F - 73.4 °F 89% 29.80 in 6.2 mi NNE 11.5 mph - N/A Rain , Thunderstorm Light Rain Showers
7:55 PM 77.0 °F - 73.4 °F 89% 29.80 in 6.2 mi NNW 9.2 mph - N/A Rain Light Rain Showers
8:00 PM 77.0 °F - 75.2 °F 94% 29.80 in 6.2 mi NW 10.4 mph - N/A   Mostly Cloudy
8:30 PM 78.8 °F - 75.2 °F 89% 29.80 in 6.2 mi WNW 12.7 mph - N/A   Mostly Cloudy
9:00 PM 80 °F - 76 °F 84% 29.84 in 19 mi West 9.2 mph - -   Scattered Clouds
9:00 PM 80.6 °F 87.1 °F 77.0 °F 89% 29.83 in 6.2 mi West 9.2 mph - N/A   Mostly Cloudy
9:30 PM 80 °F - 77 °F 89% 29.86 in - WSW 5.8 mph - -  
9:30 PM 80.6 °F 87.1 °F 77.0 °F 89% 29.86 in 6.2 mi WSW 5.8 mph - N/A   Mostly Cloudy
10:00 PM 82.4 °F 90.9 °F 77.0 °F 84% 29.86 in - WSW 8.1 mph - N/A   Clear
10:30 PM 82.4 °F 90.9 °F 77.0 °F 84% 29.86 in - WSW 6.9 mph - N/A   Clear
11:00 PM 82.4 °F 90.9 °F 77.0 °F 84% 29.86 in 6.2 mi WSW 4.6 mph - N/A   Mostly Cloudy
11:30 PM 80.6 °F 86.2 °F 75.2 °F 84% 29.86 in - East 10.4 mph - N/A   Clear